EWG32ME EGLL-EDDS

Flight info

Callsign EWG32ME
Flight time 1h 7m
Altitude 37000
Route DET L6 DVR UL9 KONAN UL607 REMBA M624 DIK M150 KRH T128 BADSO BADSO2A
Aircraft A320/M-SDE3FGHIRWY/LB1

Departure

Time 2026-05-07 14:10
Airport London Heathrow Airport (EGLL)

Arrival

Time 2026-05-07 15:18
Airport Stuttgart Airport (EDDS)
Time Latitude Longitude Altitude Speed Heading
2026-05-07 13:47 51.46826 -0.45046 87 ft 0 kts 360°
2026-05-07 13:59 51.46793 -0.45046 88 ft 0 kts 359°
2026-05-07 14:00 51.46751 -0.44990 87 ft 0 kts 269°
2026-05-07 14:00 51.46751 -0.44994 87 ft 0 kts 270°
2026-05-07 14:02 51.46751 -0.45000 87 ft 4 kts 269°
2026-05-07 14:02 51.46751 -0.45079 87 ft 7 kts 269°
2026-05-07 14:03 51.46750 -0.45187 87 ft 14 kts 270°
2026-05-07 14:03 51.46750 -0.45337 87 ft 13 kts 270°
2026-05-07 14:03 51.46750 -0.45472 87 ft 12 kts 270°
2026-05-07 14:03 51.46749 -0.45614 87 ft 18 kts 269°
2026-05-07 14:04 51.46749 -0.45816 87 ft 18 kts 268°
2026-05-07 14:04 51.46747 -0.46012 87 ft 18 kts 269°
2026-05-07 14:04 51.46747 -0.46206 91 ft 17 kts 270°
2026-05-07 14:04 51.46746 -0.46391 90 ft 16 kts 269°
2026-05-07 14:05 51.46748 -0.46561 87 ft 14 kts 269°
2026-05-07 14:05 51.46747 -0.46727 91 ft 14 kts 269°
2026-05-07 14:05 51.46746 -0.46898 91 ft 20 kts 270°
2026-05-07 14:05 51.46745 -0.47138 87 ft 23 kts 269°
2026-05-07 14:06 51.46745 -0.47402 87 ft 25 kts 269°
2026-05-07 14:06 51.46743 -0.47686 87 ft 26 kts 269°
2026-05-07 14:06 51.46741 -0.47991 87 ft 28 kts 272°
2026-05-07 14:06 51.46703 -0.48215 87 ft 18 kts 188°
2026-05-07 14:07 51.46610 -0.48216 87 ft 13 kts 180°
2026-05-07 14:07 51.46589 -0.48216 87 ft 0 kts 180°
2026-05-07 14:08 51.46567 -0.48216 88 ft 13 kts 180°
2026-05-07 14:08 51.46479 -0.48163 88 ft 9 kts 98°
2026-05-07 14:08 51.46480 -0.48140 89 ft 0 kts 89°
2026-05-07 14:09 51.46480 -0.48031 87 ft 40 kts 90°
2026-05-07 14:10 51.46482 -0.47168 87 ft 113 kts 89°
2026-05-07 14:10 51.46485 -0.45623 253 ft 151 kts 90°
2026-05-07 14:10 51.46496 -0.43938 945 ft 154 kts 90°
2026-05-07 14:10 51.46490 -0.42148 1473 ft 168 kts 97°
2026-05-07 14:11 51.45947 -0.40449 1986 ft 180 kts 133°
2026-05-07 14:11 51.45110 -0.38854 2491 ft 195 kts 126°
2026-05-07 14:11 51.44351 -0.36927 2950 ft 215 kts 121°
2026-05-07 14:11 51.43629 -0.34721 3550 ft 233 kts 109°
2026-05-07 14:12 51.43264 -0.32104 4197 ft 250 kts 102°
2026-05-07 14:12 51.42893 -0.29284 4902 ft 266 kts 103°
2026-05-07 14:12 51.42488 -0.26346 5816 ft 271 kts 103°
2026-05-07 14:12 51.42086 -0.23383 6793 ft 274 kts 103°
2026-05-07 14:13 51.41684 -0.20390 7740 ft 277 kts 103°
2026-05-07 14:13 51.41275 -0.17365 8702 ft 280 kts 103°
2026-05-07 14:13 51.40855 -0.14292 9645 ft 284 kts 103°
2026-05-07 14:13 51.40423 -0.11176 10424 ft 292 kts 104°
2026-05-07 14:14 51.39967 -0.07900 10914 ft 310 kts 104°
2026-05-07 14:14 51.39484 -0.04439 11390 ft 326 kts 103°
2026-05-07 14:14 51.38990 -0.00898 12072 ft 334 kts 103°
2026-05-07 14:14 51.38482 0.02748 12892 ft 337 kts 103°
2026-05-07 14:15 51.37970 0.06436 13701 ft 341 kts 103°
2026-05-07 14:15 51.37455 0.10154 14423 ft 345 kts 103°
2026-05-07 14:15 51.36930 0.13936 15098 ft 350 kts 103°
2026-05-07 14:15 51.36395 0.17762 15770 ft 354 kts 103°
2026-05-07 14:16 51.35852 0.21638 16438 ft 359 kts 104°
2026-05-07 14:16 51.35300 0.25551 17097 ft 363 kts 104°
2026-05-07 14:16 51.34736 0.29516 17739 ft 368 kts 104°
2026-05-07 14:16 51.34162 0.33532 18242 ft 373 kts 104°
2026-05-07 14:17 51.33579 0.37584 18792 ft 377 kts 104°
2026-05-07 14:17 51.32983 0.41704 19365 ft 380 kts 104°
2026-05-07 14:17 51.32388 0.45842 19959 ft 384 kts 104°
2026-05-07 14:17 51.31788 0.50021 20551 ft 387 kts 104°
2026-05-07 14:18 51.31181 0.54229 21144 ft 391 kts 104°
2026-05-07 14:18 51.30572 0.58480 21731 ft 395 kts 104°
2026-05-07 14:18 51.29920 0.62772 22328 ft 398 kts 106°
2026-05-07 14:18 51.29183 0.67056 22913 ft 401 kts 107°
2026-05-07 14:19 51.28386 0.71345 23483 ft 405 kts 108°
2026-05-07 14:19 51.27555 0.75676 23969 ft 408 kts 108°
2026-05-07 14:19 51.26718 0.80025 24455 ft 411 kts 108°
2026-05-07 14:19 51.25883 0.84410 24935 ft 414 kts 108°
2026-05-07 14:20 51.25063 0.88768 25443 ft 417 kts 108°
2026-05-07 14:20 51.24228 0.93269 25895 ft 419 kts 108°
2026-05-07 14:20 51.23400 0.97756 26317 ft 422 kts 108°
2026-05-07 14:20 51.22572 1.02256 26737 ft 425 kts 108°
2026-05-07 14:21 51.21737 1.06783 27144 ft 427 kts 108°
2026-05-07 14:21 51.20891 1.11336 27550 ft 430 kts 108°
2026-05-07 14:21 51.20032 1.15920 27946 ft 432 kts 108°
2026-05-07 14:21 51.19176 1.20463 28334 ft 435 kts 108°
2026-05-07 14:22 51.18302 1.25091 28716 ft 437 kts 108°
2026-05-07 14:22 51.17419 1.29765 29088 ft 440 kts 108°
2026-05-07 14:22 51.16574 1.34457 29456 ft 443 kts 104°
2026-05-07 14:22 51.16094 1.39306 29818 ft 446 kts 95°
2026-05-07 14:23 51.15870 1.44254 30147 ft 449 kts 95°
2026-05-07 14:23 51.15640 1.49228 30431 ft 451 kts 95°
2026-05-07 14:23 51.15403 1.54237 30716 ft 453 kts 95°
2026-05-07 14:23 51.15161 1.59255 30999 ft 455 kts 95°
2026-05-07 14:24 51.14913 1.64294 31269 ft 457 kts 95°
2026-05-07 14:24 51.14658 1.69351 31527 ft 459 kts 95°
2026-05-07 14:24 51.14397 1.74428 31798 ft 460 kts 95°
2026-05-07 14:24 51.14136 1.79506 32157 ft 460 kts 95°
2026-05-07 14:25 51.13878 1.84572 32537 ft 458 kts 95°
2026-05-07 14:25 51.13618 1.89626 32907 ft 458 kts 96°
2026-05-07 14:25 51.13355 1.94672 33268 ft 457 kts 96°
2026-05-07 14:25 51.13094 1.99640 33625 ft 456 kts 96°
2026-05-07 14:26 51.12831 2.04671 33991 ft 456 kts 96°
2026-05-07 14:26 51.12565 2.09751 34317 ft 455 kts 96°
2026-05-07 14:26 51.12298 2.14768 34603 ft 455 kts 96°
2026-05-07 14:26 51.12030 2.19711 34886 ft 454 kts 96°
2026-05-07 14:27 51.11755 2.24721 35156 ft 454 kts 96°
2026-05-07 14:27 51.11477 2.29740 35417 ft 454 kts 96°
2026-05-07 14:27 51.11202 2.34736 35671 ft 454 kts 96°
2026-05-07 14:27 51.10924 2.39753 35920 ft 454 kts 96°
2026-05-07 14:28 51.10644 2.44757 36167 ft 454 kts 96°
2026-05-07 14:28 51.10363 2.49760 36417 ft 454 kts 96°
2026-05-07 14:28 51.10077 2.54762 36643 ft 454 kts 96°
2026-05-07 14:28 51.09787 2.59761 36873 ft 454 kts 96°
2026-05-07 14:29 51.09433 2.64749 37047 ft 454 kts 102°
2026-05-07 14:29 51.07820 2.74345 37079 ft 448 kts 107°
2026-05-07 14:30 51.06099 2.83815 37080 ft 448 kts 107°
2026-05-07 14:30 51.04352 2.93389 37080 ft 449 kts 108°
2026-05-07 14:31 51.02616 3.02909 37080 ft 449 kts 108°
2026-05-07 14:31 51.00883 3.12353 37071 ft 448 kts 108°
2026-05-07 14:32 50.99117 3.21869 37079 ft 449 kts 108°
2026-05-07 14:32 50.97342 3.31373 37082 ft 449 kts 108°
2026-05-07 14:33 50.95570 3.40860 37080 ft 449 kts 108°
2026-05-07 14:33 50.93788 3.50362 37081 ft 449 kts 108°
2026-05-07 14:34 50.91993 3.59857 37086 ft 450 kts 108°
2026-05-07 14:34 50.90193 3.69352 37091 ft 450 kts 108°
2026-05-07 14:35 50.88366 3.78835 37097 ft 450 kts 109°
2026-05-07 14:35 50.86526 3.88287 37093 ft 450 kts 109°
2026-05-07 14:36 50.84681 3.97747 37092 ft 450 kts 108°
2026-05-07 14:36 50.82833 4.07191 37089 ft 450 kts 109°
2026-05-07 14:37 50.80982 4.16573 37088 ft 449 kts 109°
2026-05-07 14:37 50.78185 4.30718 37076 ft 449 kts 109°
2026-05-07 14:38 50.76295 4.40225 37082 ft 458 kts 109°
2026-05-07 14:38 50.74357 4.49893 37084 ft 467 kts 109°
2026-05-07 14:39 50.72374 4.59728 37082 ft 473 kts 109°
2026-05-07 14:39 50.70739 4.68004 37079 ft 476 kts 108°
2026-05-07 14:40 50.68814 4.78005 37077 ft 476 kts 108°
2026-05-07 14:40 50.66720 4.87897 37084 ft 474 kts 117°
2026-05-07 14:41 50.63010 4.96381 37076 ft 470 kts 137°
2026-05-07 14:41 50.58340 5.03606 37079 ft 470 kts 137°
2026-05-07 14:42 50.53674 5.10840 37084 ft 470 kts 137°
2026-05-07 14:42 50.49004 5.18047 37083 ft 470 kts 137°
2026-05-07 14:43 50.44327 5.25239 37073 ft 471 kts 137°
2026-05-07 14:43 50.39648 5.32404 37076 ft 471 kts 137°
2026-05-07 14:44 50.34964 5.39565 37069 ft 471 kts 137°
2026-05-07 14:44 50.30257 5.46737 37056 ft 472 kts 137°
2026-05-07 14:45 50.25551 5.53884 37064 ft 472 kts 137°
2026-05-07 14:45 50.20870 5.60975 37070 ft 472 kts 137°
2026-05-07 14:46 50.16152 5.68100 37072 ft 472 kts 137°
2026-05-07 14:46 50.11426 5.75219 37068 ft 472 kts 137°
2026-05-07 14:47 50.06696 5.82305 37060 ft 472 kts 137°
2026-05-07 14:47 50.01964 5.89394 37058 ft 472 kts 137°
2026-05-07 14:48 49.97228 5.96476 37051 ft 472 kts 137°
2026-05-07 14:48 49.92484 6.03551 37051 ft 473 kts 138°
2026-05-07 14:49 49.87741 6.10645 37056 ft 474 kts 134°
2026-05-07 14:49 49.84043 6.19091 37047 ft 477 kts 118°
2026-05-07 14:50 49.80973 6.28199 37049 ft 477 kts 119°
2026-05-07 14:50 49.77903 6.37231 37046 ft 477 kts 119°
2026-05-07 14:51 49.74790 6.46310 37043 ft 477 kts 119°
2026-05-07 14:51 49.71674 6.55360 37038 ft 477 kts 119°
2026-05-07 14:52 49.68557 6.64439 37037 ft 477 kts 119°
2026-05-07 14:52 49.65451 6.73483 37028 ft 477 kts 119°
2026-05-07 14:53 49.62326 6.82545 37028 ft 477 kts 119°
2026-05-07 14:53 49.59199 6.91584 37030 ft 478 kts 119°
2026-05-07 14:54 49.56057 7.00603 37035 ft 478 kts 119°
2026-05-07 14:54 49.52909 7.09603 37067 ft 474 kts 119°
2026-05-07 14:55 49.49790 7.18509 37071 ft 473 kts 119°
2026-05-07 14:55 49.46662 7.27408 36666 ft 472 kts 119°
2026-05-07 14:56 49.45124 7.31780 35917 ft 471 kts 119°
2026-05-07 14:56 49.43569 7.36191 35364 ft 466 kts 119°
2026-05-07 14:56 49.42043 7.40506 35135 ft 454 kts 119°
2026-05-07 14:56 49.40546 7.44729 34737 ft 447 kts 119°
2026-05-07 14:57 49.39067 7.48889 34290 ft 442 kts 119°
2026-05-07 14:57 49.37594 7.53028 33788 ft 438 kts 119°
2026-05-07 14:57 49.36140 7.57110 33258 ft 434 kts 119°
2026-05-07 14:57 49.34697 7.61153 32751 ft 430 kts 119°
2026-05-07 14:58 49.33261 7.65167 32058 ft 430 kts 119°
2026-05-07 14:58 49.31807 7.69224 31170 ft 441 kts 119°
2026-05-07 14:58 49.30308 7.73410 30580 ft 449 kts 119°
2026-05-07 14:58 49.28813 7.77581 30016 ft 444 kts 119°
2026-05-07 14:59 49.27306 7.81777 29346 ft 461 kts 119°
2026-05-07 14:59 49.25749 7.86099 28689 ft 463 kts 119°
2026-05-07 14:59 49.24201 7.90393 28047 ft 459 kts 119°
2026-05-07 14:59 49.22664 7.94651 27466 ft 455 kts 120°
2026-05-07 15:00 49.21138 7.98869 26881 ft 451 kts 120°
2026-05-07 15:00 49.19622 8.03050 26321 ft 448 kts 120°
2026-05-07 15:00 49.18114 8.07207 25784 ft 445 kts 120°
2026-05-07 15:00 49.16619 8.11316 25287 ft 442 kts 120°
2026-05-07 15:01 49.15122 8.15416 24793 ft 439 kts 120°
2026-05-07 15:01 49.13753 8.19573 24315 ft 438 kts 111°
2026-05-07 15:01 49.12853 8.24006 23759 ft 436 kts 107°
2026-05-07 15:01 49.12006 8.28428 23109 ft 433 kts 107°
2026-05-07 15:02 49.11182 8.32763 22458 ft 429 kts 107°
2026-05-07 15:02 49.10345 8.37179 21805 ft 425 kts 107°
2026-05-07 15:02 49.09524 8.41500 21177 ft 422 kts 107°
2026-05-07 15:02 49.08704 8.45790 20567 ft 420 kts 107°
2026-05-07 15:03 49.07895 8.49995 19971 ft 417 kts 107°
2026-05-07 15:03 49.07066 8.54284 19371 ft 415 kts 107°
2026-05-07 15:03 49.06257 8.58445 18794 ft 414 kts 107°
2026-05-07 15:03 49.05438 8.62640 18208 ft 412 kts 107°
2026-05-07 15:04 49.04615 8.66863 17547 ft 409 kts 107°
2026-05-07 15:04 49.03810 8.70990 16882 ft 399 kts 107°
2026-05-07 15:04 49.03043 8.74903 16247 ft 383 kts 107°
2026-05-07 15:04 49.02295 8.78715 15621 ft 369 kts 107°
2026-05-07 15:05 49.01575 8.82389 15022 ft 357 kts 107°
2026-05-07 15:05 49.00869 8.85987 14438 ft 353 kts 106°
2026-05-07 15:05 49.00158 8.89595 13854 ft 349 kts 106°
2026-05-07 15:05 48.99468 8.93101 13227 ft 351 kts 106°
2026-05-07 15:06 48.98762 8.96670 12588 ft 353 kts 107°
2026-05-07 15:06 48.98064 9.00198 11982 ft 341 kts 107°
2026-05-07 15:06 48.97393 9.03589 11433 ft 328 kts 107°
2026-05-07 15:06 48.96745 9.06855 10931 ft 316 kts 107°
2026-05-07 15:07 48.96117 9.10010 10440 ft 306 kts 108°
2026-05-07 15:07 48.95507 9.13069 9952 ft 301 kts 108°
2026-05-07 15:07 48.94893 9.16136 9425 ft 304 kts 108°
2026-05-07 15:07 48.94247 9.19219 8892 ft 306 kts 109°
2026-05-07 15:08 48.93587 9.22304 8372 ft 307 kts 109°
2026-05-07 15:08 48.92922 9.25393 7856 ft 306 kts 109°
2026-05-07 15:08 48.92272 9.28413 7386 ft 294 kts 109°
2026-05-07 15:08 48.91650 9.31292 7074 ft 277 kts 109°
2026-05-07 15:09 48.91058 9.34036 7029 ft 270 kts 109°
2026-05-07 15:09 48.90482 9.36708 6912 ft 266 kts 109°
2026-05-07 15:09 48.89910 9.39356 6673 ft 261 kts 109°
2026-05-07 15:09 48.89354 9.41942 6461 ft 254 kts 109°
2026-05-07 15:10 48.88703 9.44413 6252 ft 251 kts 120°
2026-05-07 15:10 48.87813 9.46693 6044 ft 250 kts 123°
2026-05-07 15:10 48.86889 9.48906 5837 ft 246 kts 124°
2026-05-07 15:10 48.85978 9.51062 5627 ft 237 kts 124°
2026-05-07 15:11 48.85033 9.53026 5380 ft 225 kts 140°
2026-05-07 15:11 48.83803 9.54465 5130 ft 220 kts 148°
2026-05-07 15:11 48.82514 9.55486 5057 ft 197 kts 168°
2026-05-07 15:11 48.81170 9.55917 5049 ft 197 kts 178°
2026-05-07 15:12 48.79819 9.55873 5022 ft 193 kts 198°
2026-05-07 15:12 48.78544 9.55255 5030 ft 191 kts 207°
2026-05-07 15:12 48.77341 9.54317 5024 ft 200 kts 213°
2026-05-07 15:12 48.76141 9.53257 5028 ft 200 kts 214°
2026-05-07 15:13 48.75015 9.52033 4915 ft 196 kts 229°
2026-05-07 15:13 48.74293 9.50355 4710 ft 191 kts 251°
2026-05-07 15:13 48.73928 9.48493 4479 ft 175 kts 257°
2026-05-07 15:13 48.73615 9.46825 4274 ft 156 kts 256°
2026-05-07 15:14 48.73334 9.45324 4060 ft 141 kts 258°
2026-05-07 15:14 48.73068 9.43897 3871 ft 140 kts 257°
2026-05-07 15:14 48.72804 9.42481 3682 ft 140 kts 258°
2026-05-07 15:14 48.72540 9.41073 3498 ft 139 kts 257°
2026-05-07 15:15 48.72276 9.39660 3310 ft 138 kts 258°
2026-05-07 15:15 48.72012 9.38256 3116 ft 139 kts 257°
2026-05-07 15:15 48.71749 9.36853 2931 ft 138 kts 257°
2026-05-07 15:15 48.71488 9.35463 2746 ft 137 kts 257°
2026-05-07 15:16 48.71226 9.34071 2561 ft 137 kts 259°
2026-05-07 15:16 48.70965 9.32683 2376 ft 137 kts 258°
2026-05-07 15:16 48.70705 9.31300 2179 ft 136 kts 258°
2026-05-07 15:16 48.70444 9.29917 1990 ft 137 kts 258°
2026-05-07 15:17 48.70189 9.28531 1799 ft 137 kts 258°
2026-05-07 15:17 48.69914 9.27128 1602 ft 139 kts 256°
2026-05-07 15:17 48.69656 9.25734 1410 ft 138 kts 256°
2026-05-07 15:17 48.69394 9.24348 1247 ft 136 kts 256°
2026-05-07 15:18 48.69157 9.23079 1225 ft 98 kts 252°
2026-05-07 15:18 48.69042 9.22458 1233 ft 45 kts 254°
2026-05-07 15:18 48.68943 9.21939 1255 ft 45 kts 261°
2026-05-07 15:18 48.68977 9.21534 1261 ft 28 kts 284°
2026-05-07 15:19 48.68985 9.21484 1259 ft 0 kts 283°
2026-05-07 15:20 48.68986 9.21479 1259 ft 0 kts 283°
2026-05-07 15:20 48.68989 9.21461 1262 ft 10 kts 283°
2026-05-07 15:20 48.69002 9.21314 1260 ft 15 kts 253°
2026-05-07 15:20 48.68971 9.21165 1264 ft 12 kts 252°
2026-05-07 15:21 48.68949 9.21059 1263 ft 9 kts 252°
2026-05-07 15:21 48.68935 9.20990 1265 ft 5 kts 253°
2026-05-07 15:21 48.68922 9.20925 1268 ft 6 kts 253°
2026-05-07 15:21 48.68911 9.20864 1270 ft 12 kts 254°
2026-05-07 15:22 48.68885 9.20729 1272 ft 13 kts 254°
2026-05-07 15:22 48.68859 9.20593 1275 ft 13 kts 254°
2026-05-07 15:22 48.68832 9.20444 1279 ft 16 kts 254°
2026-05-07 15:22 48.68802 9.20288 1283 ft 15 kts 253°
2026-05-07 15:23 48.68783 9.20187 1284 ft 15 kts 254°
2026-05-07 15:23 48.68758 9.20036 1288 ft 14 kts 270°
2026-05-07 15:23 48.68766 9.19886 1287 ft 16 kts 251°
2026-05-07 15:23 48.68733 9.19716 1285 ft 18 kts 254°
2026-05-07 15:24 48.68683 9.19454 1290 ft 21 kts 253°
2026-05-07 15:24 48.68655 9.19307 1289 ft 22 kts 257°
2026-05-07 15:24 48.68773 9.19264 1288 ft 18 kts 48°
2026-05-07 15:24 48.68803 9.19361 1286 ft 14 kts 72°
2026-05-07 15:25 48.68838 9.19452 1286 ft 8 kts
2026-05-07 15:25 48.68882 9.19435 1289 ft 4 kts 343°
2026-05-07 15:25 48.68887 9.19432 1287 ft 1 kts 345°
2026-05-07 15:25 48.68895 9.19429 1287 ft 0 kts 344°